Location: Unspecified
(41.9031°N, 12.4386°E)
Time: 05:12:50
(UTC+02:00)

ISS - Pass Details

Date: 28 March 2020
Orbit: 417 x 423 km, 51.6° (Epoch: 29 March)

Event Time Altitude Azimuth Distance (km) Brightness Sun altitude
Rises 21:31:17 0° 308° (NW) 2,362 1.2 -31.4°
Reaches altitude 10° 21:33:29 10° 317° (NW) 1,497 -0.1 -31.7°
Enters shadow 21:33:40 11° 318° (NW) 1,432 -0.2 -31.8°
